{"data":{"norad_id":66920,"epoch":"2026-05-24T23:29:39.227136Z","epoch_age_seconds":80028,"freshness":"FRESH","line1":"1 66920U 25285F   26144.97892624 -.00000096  00000+0  61280-4 0  9995","line2":"2 66920  50.0100 229.1657 0000988 211.7956 148.2857 13.29325819 22977","mean_motion":13.29325819,"eccentricity":9.88e-5,"inclination_deg":50.01,"raan_deg":229.1657,"arg_perigee_deg":211.7956,"mean_anomaly_deg":148.2857,"bstar":6.128e-5,"rev_number":2297,"period_min":108.3255872577,"perigee_km":1148.5635436487,"apogee_km":1150.0509666335,"semimajor_km":7527.4442551411,"source":"CELESTRAK","updated_at":"2026-05-25T13:38:06.594657Z"}}